When you browse on this site, cookies collect data to enhance your experience and personalize the content and advertising you see.
Visit our Privacy Policy to learn more. By continuing to use the site, you agree to this use of cookies and data.
  • Em Portugal
  • Lista de países
  • Para 7 dias
  • Temperatura da água
  • Mapas de satélite
  • Mapa do tempo
  • Widgets de tempo
  • user-avatar
    Iniciar Sessão

    Previsão horária em Klosnowo

    Hoje, 24 Fevereiro, Domingo

    Tempo Temperatura Precipitação Vento Pressão Humidade
    00:00 -2°C° 0 mm 3 m/s 764 mmHg 39%
    01:00 -2°C° 0 mm 3 m/s 764 mmHg 39%
    02:00 -2°C° 0 mm 3 m/s 764 mmHg 42%
    03:00 -2°C° 0 mm 3 m/s 763 mmHg 44%
    04:00 -2°C° 0 mm 3 m/s 763 mmHg 47%
    05:00 -2°C° 0 mm 3 m/s 763 mmHg 46%
    06:00 -2°C° 0 mm 3 m/s 763 mmHg 45%
    07:00 -2°C° 0 mm 3 m/s 762 mmHg 45%
    08:00 0°C° 0 mm 3 m/s 762 mmHg 43%
    09:00 +1°C° 0 mm 3 m/s 762 mmHg 42%
    10:00 +1°C° 0 mm 4 m/s 762 mmHg 41%
    11:00 +3°C° 0 mm 4 m/s 762 mmHg 42%
    12:00 +4°C° 0 mm 4 m/s 762 mmHg 43%
    13:00 +5°C° 0 mm 4 m/s 762 mmHg 44%
    14:00 +5°C° 0 mm 4 m/s 762 mmHg 48%
    15:00 +4°C° 0 mm 3 m/s 761 mmHg 52%
    16:00 +4°C° 0 mm 3 m/s 761 mmHg 56%
    17:00 +3°C° 0 mm 3 m/s 761 mmHg 58%
    18:00 +1°C° 0 mm 4 m/s 761 mmHg 60%
    19:00 0°C° 0 mm 4 m/s 761 mmHg 62%
    20:00 0°C° 0 mm 4 m/s 761 mmHg 65%
    21:00 0°C° 0 mm 4 m/s 761 mmHg 68%
    22:00 0°C° 0 mm 4 m/s 761 mmHg 71%
    23:00 0°C° 0 mm 4 m/s 761 mmHg 77%

    Amanhã, 25 Fevereiro, Segunda-feira

    Tempo Temperatura Precipitação Vento Pressão Humidade
    00:00 0°C° 0 mm 3 m/s 761 mmHg 84%
    01:00 0°C° 0 mm 3 m/s 761 mmHg 90%
    02:00 0°C° 0 mm 3 m/s 760 mmHg 93%
    03:00 0°C° 0 mm 3 m/s 760 mmHg 95%
    04:00 0°C° 0 mm 3 m/s 760 mmHg 97%
    05:00 +1°C° 0 mm 3 m/s 760 mmHg 97%
    06:00 +1°C° 0 mm 3 m/s 760 mmHg 97%
    07:00 +2°C° 0 mm 3 m/s 760 mmHg 97%
    08:00 +2°C° 0 mm 3 m/s 760 mmHg 94%
    09:00 +3°C° 0 mm 4 m/s 761 mmHg 92%
    10:00 +3°C° 0 mm 4 m/s 761 mmHg 89%
    11:00 +4°C° 0 mm 3 m/s 761 mmHg 83%
    12:00 +7°C° 0 mm 3 m/s 760 mmHg 76%
    13:00 +8°C° 0 mm 3 m/s 760 mmHg 70%
    14:00 +7°C° 0 mm 3 m/s 760 mmHg 70%
    15:00 +7°C° 0 mm 3 m/s 760 mmHg 71%
    16:00 +7°C° 0 mm 3 m/s 760 mmHg 71%
    17:00 +4°C° 0 mm 3 m/s 760 mmHg 77%
    18:00 +3°C° 0 mm 3 m/s 760 mmHg 83%
    19:00 +2°C° 0 mm 3 m/s 760 mmHg 88%
    20:00 +2°C° 0 mm 3 m/s 759 mmHg 90%
    21:00 +1°C° 0 mm 3 m/s 759 mmHg 92%
    22:00 +1°C° 0 mm 3 m/s 759 mmHg 94%
    23:00 +2°C° 0 mm 3 m/s 759 mmHg 95%

    Depois de amanhã, 26 Fevereiro, Terça-feira

    Tempo Temperatura Precipitação Vento Pressão Humidade
    00:00 +2°C° 0 mm 3 m/s 758 mmHg 96%
    01:00 +2°C° 0 mm 3 m/s 758 mmHg 97%
    02:00 +3°C° 0 mm 3 m/s 758 mmHg 96%
    03:00 +3°C° 0 mm 3 m/s 757 mmHg 96%
    04:00 +3°C° 0 mm 3 m/s 757 mmHg 95%
    05:00 +3°C° 0 mm 3 m/s 756 mmHg 93%
    06:00 +3°C° 0 mm 4 m/s 756 mmHg 92%
    07:00 +3°C° 0 mm 4 m/s 756 mmHg 90%
    08:00 +3°C° 0 mm 4 m/s 756 mmHg 89%
    09:00 +4°C° 0 mm 4 m/s 756 mmHg 87%
    10:00 +4°C° 0 mm 4 m/s 756 mmHg 85%
    11:00 +5°C° 0 mm 4 m/s 756 mmHg 82%
    12:00 +5°C° 0 mm 4 m/s 757 mmHg 78%
    13:00 +6°C° 0 mm 4 m/s 757 mmHg 75%
    14:00 +6°C° 0 mm 4 m/s 757 mmHg 73%
    15:00 +7°C° 0 mm 3 m/s 757 mmHg 72%
    16:00 +8°C° 0 mm 3 m/s 757 mmHg 71%
    17:00 +5°C° 0 mm 3 m/s 757 mmHg 76%
    18:00 +5°C° 0 mm 2 m/s 757 mmHg 82%
    19:00 +4°C° 0 mm 2 m/s 757 mmHg 88%
    20:00 +3°C° 0 mm 2 m/s 757 mmHg 88%
    21:00 +4°C° 0 mm 1 m/s 757 mmHg 89%
    22:00 +4°C° 0 mm 1 m/s 757 mmHg 89%
    23:00 +4°C° 0 mm 1 m/s 757 mmHg 89%

    27 Fevereiro, Quarta-feira

    Tempo Temperatura Precipitação Vento Pressão Humidade
    00:00 +4°C° 0 mm 1 m/s 757 mmHg 90%
    01:00 +3°C° 0 mm 1 m/s 757 mmHg 90%
    02:00 +3°C° 0 mm 1 m/s 757 mmHg 91%
    03:00 +2°C° 0 mm 2 m/s 756 mmHg 92%
    04:00 +2°C° 0 mm 2 m/s 756 mmHg 93%
    05:00 +2°C° 0 mm 2 m/s 756 mmHg 92%
    06:00 +2°C° 0 mm 2 m/s 755 mmHg 92%
    07:00 +2°C° 0 mm 2 m/s 755 mmHg 91%
    08:00 +3°C° 0 mm 2 m/s 755 mmHg 86%
    09:00 +4°C° 0 mm 3 m/s 755 mmHg 81%
    10:00 +5°C° 0 mm 3 m/s 754 mmHg 75%
    11:00 +8°C° 0 mm 3 m/s 754 mmHg 70%
    12:00 +9°C° 0 mm 3 m/s 754 mmHg 65%
    13:00 +10°C° 0 mm 4 m/s 753 mmHg 60%
    14:00 +10°C° 0 mm 4 m/s 753 mmHg 61%
    15:00 +10°C° 0 mm 4 m/s 752 mmHg 62%
    16:00 +8°C° 0 mm 4 m/s 752 mmHg 64%
    17:00 +7°C° 0 mm 4 m/s 752 mmHg 68%
    18:00 +7°C° 0 mm 3 m/s 751 mmHg 73%
    19:00 +5°C° 0 mm 3 m/s 751 mmHg 78%
    20:00 +4°C° 0 mm 3 m/s 750 mmHg 79%
    21:00 +4°C° 0 mm 3 m/s 750 mmHg 80%
    22:00 +4°C° 0 mm 3 m/s 749 mmHg 82%
    23:00 +4°C° 0 mm 3 m/s 749 mmHg 83%

    28 Fevereiro, Quinta-feira

    Tempo Temperatura Precipitação Vento Pressão Humidade
    00:00 +4°C° 0 mm 4 m/s 749 mmHg 85%
    01:00 +3°C° 0 mm 4 m/s 748 mmHg 86%
    02:00 +3°C° 0 mm 4 m/s 747 mmHg 88%
    03:00 +3°C° 0 mm 4 m/s 747 mmHg 89%
    04:00 +3°C° 0 mm 4 m/s 746 mmHg 90%
    05:00 +3°C° 0 mm 4 m/s 746 mmHg 90%
    06:00 +3°C° 0 mm 4 m/s 745 mmHg 89%
    07:00 +3°C° 0 mm 4 m/s 745 mmHg 89%
    08:00 +3°C° 0 mm 5 m/s 745 mmHg 84%
    09:00 +5°C° 0 mm 5 m/s 745 mmHg 79%
    10:00 +5°C° 0 mm 6 m/s 744 mmHg 74%
    11:00 +7°C° 0 mm 6 m/s 744 mmHg 72%
    12:00 +7°C° 0 mm 6 m/s 744 mmHg 71%
    13:00 +8°C° 0 mm 7 m/s 744 mmHg 69%
    14:00 +7°C° 0 mm 6 m/s 745 mmHg 72%
    15:00 +7°C° 0 mm 6 m/s 745 mmHg 74%
    16:00 +6°C° 0 mm 5 m/s 745 mmHg 77%
    17:00 +5°C° 0 mm 4 m/s 745 mmHg 79%
    18:00 +5°C° 0 mm 4 m/s 746 mmHg 82%
    19:00 +4°C° 0 mm 3 m/s 746 mmHg 85%
    20:00 +3°C° 0 mm 3 m/s 746 mmHg 88%
    21:00 +3°C° 0 mm 3 m/s 746 mmHg 92%
    22:00 +2°C° 0 mm 3 m/s 746 mmHg 95%
    23:00 +2°C° 0 mm 3 m/s 747 mmHg 94%

    1 Março, Sexta-feira

    Tempo Temperatura Precipitação Vento Pressão Humidade
    00:00 +1°C° 0 mm 3 m/s 747 mmHg 94%
    01:00 +2°C° 0 mm 2 m/s 747 mmHg 93%
    02:00 +1°C° 0 mm 2 m/s 747 mmHg 91%
    03:00 +1°C° 0 mm 2 m/s 747 mmHg 89%
    04:00 +1°C° 0 mm 2 m/s 747 mmHg 87%
    05:00 +1°C° 0 mm 2 m/s 747 mmHg 87%
    06:00 -1°C° 0 mm 2 m/s 748 mmHg 86%
    07:00 -1°C° 0 mm 2 m/s 748 mmHg 85%
    08:00 +1°C° 0 mm 2 m/s 748 mmHg 79%
    09:00 +2°C° 0 mm 3 m/s 749 mmHg 72%
    10:00 +3°C° 0 mm 3 m/s 750 mmHg 65%
    11:00 +4°C° 0 mm 3 m/s 750 mmHg 62%
    12:00 +5°C° 0 mm 3 m/s 750 mmHg 58%
    13:00 +5°C° 0 mm 3 m/s 750 mmHg 54%
    14:00 +5°C° 0 mm 3 m/s 750 mmHg 54%
    15:00 +4°C° 0 mm 3 m/s 751 mmHg 54%
    16:00 +4°C° 0 mm 3 m/s 751 mmHg 54%
    17:00 +3°C° 0 mm 3 m/s 751 mmHg 60%
    18:00 +2°C° 0 mm 3 m/s 751 mmHg 66%
    19:00 0°C° 0 mm 3 m/s 752 mmHg 72%
    20:00 +1°C° 0 mm 2 m/s 752 mmHg 76%
    21:00 -1°C° 0 mm 2 m/s 752 mmHg 79%
    22:00 -2°C° 0 mm 2 m/s 753 mmHg 83%
    23:00 -2°C° 0 mm 2 m/s 753 mmHg 82%
    Mostrar mais